Погода в Раменском

Россия / Московская область     56°39′22″N   37°14′08″E
темп.,
°C
ветер,
м/с
пор.,
м/с
влажн.,
%
обл.,
%
осадки,
мм/ч
давл.,
гПа
погр.,
м
10 апреля, сб
сб1000:000ю312800 0.0 1024251
03:000ю412815 0.0 1024286
06:000ю413805 0.0 1024329
09:00+5ю512645 0.0 1024679
12:00+9ююз6105144 0.0 10231932
15:00+10ююз594667 0.0 10232267
18:00+9ю510525 0.0 1022590
21:00+5ю413685 0.0 1023318
11 апреля, вс
вс1100:00+4ююз414725 0.0 1023391
03:00+3ююз311775 0.0 1024281
06:00+1ююз25855 0.0 102693
09:00+7ююз24655 0.0 1027338
12:00+12юз36515 0.0 10281090
15:00+14юз364872 0.0 10281640
18:00+12зсз1163100 0.0 102913
21:00+8всв228291 0.0 103161
12 апреля, пн
пн1200:00+7ю22795 0.0 103239
03:00+5ю22805 0.0 103334
06:00+4ююв22820 0.0 103341
09:00+10юв366112 0.0 1033370
12:00+13вюв464695 0.0 1031859
15:00+14вюв5741100 0.0 1029936
18:00+10вюв4959100 0.0 1028546
21:00+9вюв3980100 0.0 1027322
13 апреля, вт
вт1300:00+7вюв2894100 0.0 1026231
03:00+7вюв2496100 0.0 102587
06:00+6юв2496100 0.0 102490
09:00+11ююв3676100 0.0 1023276
12:00+13ю3668100 0.0 1023403
15:00+14ююв2466100 0.0 1022390
18:00+15в1168100 0.0 102113
21:00+12ююв3978100 0.1 1021215
14 апреля, ср
ср1400:00+11юв1192100 0.6 102110
03:00+10юв2783100 0.6 1020167
06:00+9юв3782100 0.0 1019143
09:00+10ююв2482100 0.1 1019115
12:00+18ююв475197 0.0 10181233
15:00+19ю594699 0.0 10162180
18:00+14ююз2272100 0.1 101639
21:00+12ююз2381100 0.1 101753